• In Uzbekistan
  • List of Countries
  • For 7 days
  • Water Temperature
  • Satellite Maps
  • Weather Map
  • Weather Widgets
  • user-avatar
    Login

    Hourly Weather Malbun

    Today, 24 September, Monday

    Time Temperature Precipitation Wind Pressure Humidity
    00:00 +8°C° 2.8 mm 4 mps 634 mmHg 96%
    01:00 +6°C° 0 mm 4 mps 634 mmHg 97%
    02:00 +5°C° 0.5 mm 4 mps 634 mmHg 97%
    03:00 +4°C° 0.5 mm 3 mps 634 mmHg 97%
    04:00 +4°C° 0.5 mm 3 mps 635 mmHg 96%
    05:00 +3°C° 0.2 mm 3 mps 635 mmHg 96%
    06:00 +3°C° 0.2 mm 3 mps 635 mmHg 95%
    07:00 +2°C° 0.2 mm 3 mps 636 mmHg 95%
    08:00 +3°C° 0.1 mm 3 mps 637 mmHg 92%
    09:00 +3°C° 0.1 mm 3 mps 637 mmHg 89%
    10:00 +3°C° 0.1 mm 3 mps 638 mmHg 86%
    11:00 +4°C° 0 mm 3 mps 638 mmHg 79%
    12:00 +5°C° 0 mm 3 mps 638 mmHg 72%
    13:00 +7°C° 0 mm 3 mps 639 mmHg 66%
    14:00 +7°C° 0 mm 3 mps 639 mmHg 64%
    15:00 +7°C° 0 mm 3 mps 639 mmHg 62%
    16:00 +7°C° 0 mm 3 mps 639 mmHg 61%
    17:00 +4°C° 0 mm 3 mps 639 mmHg 68%
    18:00 +3°C° 0 mm 3 mps 639 mmHg 76%
    19:00 +2°C° 0 mm 2 mps 639 mmHg 83%
    20:00 +2°C° 0 mm 2 mps 639 mmHg 85%
    21:00 +1°C° 0 mm 2 mps 639 mmHg 86%
    22:00 +1°C° 0 mm 2 mps 640 mmHg 88%
    23:00 -1°C° 0 mm 2 mps 640 mmHg 88%

    Tomorrow, 25 September, Tuesday

    Time Temperature Precipitation Wind Pressure Humidity
    00:00 +1°C° 0 mm 1 mps 640 mmHg 87%
    01:00 +1°C° 0 mm 1 mps 640 mmHg 87%
    02:00 +1°C° 0 mm 1 mps 639 mmHg 84%
    03:00 0°C° 0 mm 1 mps 639 mmHg 81%
    04:00 0°C° 0 mm 1 mps 639 mmHg 78%
    05:00 +1°C° 0 mm 1 mps 640 mmHg 73%
    06:00 +1°C° 0 mm 1 mps 640 mmHg 68%
    07:00 +2°C° 0 mm 1 mps 640 mmHg 64%
    08:00 +3°C° 0 mm 2 mps 641 mmHg 55%
    09:00 +6°C° 0 mm 2 mps 641 mmHg 47%
    10:00 +8°C° 0 mm 2 mps 642 mmHg 38%
    11:00 +9°C° 0 mm 2 mps 642 mmHg 38%
    12:00 +10°C° 0 mm 3 mps 642 mmHg 38%
    13:00 +11°C° 0 mm 3 mps 642 mmHg 38%
    14:00 +10°C° 0 mm 3 mps 642 mmHg 42%
    15:00 +10°C° 0 mm 3 mps 642 mmHg 46%
    16:00 +10°C° 0 mm 3 mps 642 mmHg 50%
    17:00 +7°C° 0 mm 2 mps 641 mmHg 62%
    18:00 +5°C° 0 mm 2 mps 641 mmHg 73%
    19:00 +3°C° 0 mm 1 mps 640 mmHg 84%
    20:00 +3°C° 0 mm 1 mps 641 mmHg 83%
    21:00 +3°C° 0 mm 1 mps 641 mmHg 81%
    22:00 +3°C° 0 mm 1 mps 641 mmHg 79%
    23:00 +3°C° 0 mm 1 mps 641 mmHg 78%

    Day after tomorrow, 26 September, Wednesday

    Time Temperature Precipitation Wind Pressure Humidity
    00:00 +2°C° 0 mm 2 mps 641 mmHg 77%
    01:00 +2°C° 0 mm 2 mps 641 mmHg 76%
    02:00 +2°C° 0 mm 2 mps 641 mmHg 76%
    03:00 +2°C° 0 mm 2 mps 641 mmHg 76%
    04:00 +2°C° 0 mm 2 mps 641 mmHg 76%
    05:00 +3°C° 0 mm 2 mps 641 mmHg 74%
    06:00 +4°C° 0 mm 1 mps 641 mmHg 71%
    07:00 +4°C° 0 mm 1 mps 641 mmHg 68%
    08:00 +7°C° 0 mm 1 mps 642 mmHg 59%
    09:00 +10°C° 0 mm 1 mps 643 mmHg 50%
    10:00 +14°C° 0 mm 1 mps 644 mmHg 40%
    11:00 +15°C° 0 mm 1 mps 645 mmHg 38%
    12:00 +16°C° 0 mm 1 mps 645 mmHg 37%
    13:00 +18°C° 0 mm 1 mps 645 mmHg 35%
    14:00 +16°C° 0 mm 1 mps 645 mmHg 39%
    15:00 +16°C° 0 mm 1 mps 644 mmHg 44%
    16:00 +15°C° 0 mm 1 mps 644 mmHg 48%
    17:00 +13°C° 0 mm 1 mps 643 mmHg 59%
    18:00 +10°C° 0 mm 1 mps 643 mmHg 71%
    19:00 +7°C° 0 mm 1 mps 642 mmHg 82%
    20:00 +7°C° 0 mm 1 mps 642 mmHg 79%
    21:00 +7°C° 0 mm 1 mps 642 mmHg 76%
    22:00 +7°C° 0 mm 1 mps 642 mmHg 74%
    23:00 +7°C° 0 mm 1 mps 642 mmHg 69%

    27 September, Thursday

    Time Temperature Precipitation Wind Pressure Humidity
    00:00 +7°C° 0 mm 1 mps 642 mmHg 64%
    01:00 +7°C° 0 mm 1 mps 642 mmHg 60%
    02:00 +7°C° 0 mm 1 mps 642 mmHg 56%
    03:00 +7°C° 0 mm 1 mps 641 mmHg 52%
    04:00 +7°C° 0 mm 1 mps 641 mmHg 48%
    05:00 +7°C° 0 mm 1 mps 641 mmHg 47%
    06:00 +7°C° 0 mm 1 mps 641 mmHg 46%
    07:00 +8°C° 0 mm 1 mps 641 mmHg 45%
    08:00 +11°C° 0 mm 1 mps 642 mmHg 41%
    09:00 +14°C° 0 mm 1 mps 643 mmHg 37%
    10:00 +18°C° 0 mm 1 mps 644 mmHg 33%
    11:00 +18°C° 0 mm 1 mps 644 mmHg 33%
    12:00 +19°C° 0 mm 1 mps 644 mmHg 34%
    13:00 +20°C° 0 mm 1 mps 644 mmHg 34%
    14:00 +20°C° 0 mm 1 mps 643 mmHg 38%
    15:00 +19°C° 0 mm 1 mps 643 mmHg 43%
    16:00 +19°C° 0 mm 1 mps 642 mmHg 48%
    17:00 +15°C° 0 mm 1 mps 641 mmHg 58%
    18:00 +12°C° 0 mm 1 mps 640 mmHg 69%
    19:00 +9°C° 0 mm 1 mps 639 mmHg 79%
    20:00 +9°C° 0 mm 1 mps 639 mmHg 78%
    21:00 +9°C° 0 mm 1 mps 639 mmHg 76%
    22:00 +8°C° 0 mm 1 mps 639 mmHg 74%
    23:00 +8°C° 0 mm 1 mps 639 mmHg 72%

    28 September, Friday

    Time Temperature Precipitation Wind Pressure Humidity
    00:00 +8°C° 0 mm 1 mps 638 mmHg 70%
    01:00 +8°C° 0 mm 1 mps 638 mmHg 69%
    02:00 +8°C° 0 mm 1 mps 637 mmHg 66%
    03:00 +8°C° 0 mm 1 mps 637 mmHg 64%
    04:00 +7°C° 0 mm 1 mps 636 mmHg 61%
    05:00 +8°C° 0 mm 1 mps 636 mmHg 59%
    06:00 +8°C° 0 mm 1 mps 636 mmHg 56%
    07:00 +8°C° 0 mm 1 mps 636 mmHg 53%
    08:00 +11°C° 0 mm 1 mps 637 mmHg 49%
    09:00 +13°C° 0 mm 1 mps 638 mmHg 44%
    10:00 +16°C° 0 mm 1 mps 638 mmHg 39%
    11:00 +18°C° 0 mm 1 mps 638 mmHg 39%
    12:00 +18°C° 0 mm 2 mps 638 mmHg 39%
    13:00 +18°C° 0 mm 2 mps 638 mmHg 39%
    14:00 +18°C° 0 mm 2 mps 638 mmHg 43%
    15:00 +17°C° 0 mm 2 mps 637 mmHg 48%
    16:00 +17°C° 0 mm 2 mps 637 mmHg 53%
    17:00 +14°C° 0 mm 2 mps 636 mmHg 64%
    18:00 +11°C° 0 mm 1 mps 635 mmHg 76%
    19:00 +8°C° 0 mm 1 mps 635 mmHg 88%
    20:00 +8°C° 0 mm 1 mps 635 mmHg 90%
    21:00 +7°C° 0 mm 1 mps 635 mmHg 92%
    22:00 +7°C° 0 mm 1 mps 635 mmHg 94%
    23:00 +7°C° 0 mm 1 mps 635 mmHg 94%

    29 September, Saturday

    Time Temperature Precipitation Wind Pressure Humidity
    00:00 +6°C° 0 mm 1 mps 635 mmHg 94%
    01:00 +6°C° 0 mm 1 mps 634 mmHg 94%
    02:00 +6°C° 0 mm 1 mps 634 mmHg 93%
    03:00 +6°C° 0 mm 1 mps 634 mmHg 93%
    04:00 +5°C° 0 mm 2 mps 634 mmHg 93%
    05:00 +5°C° 0 mm 2 mps 634 mmHg 93%
    06:00 +5°C° 0 mm 2 mps 634 mmHg 92%
    07:00 +5°C° 0 mm 2 mps 635 mmHg 92%
    08:00 +7°C° 0 mm 2 mps 635 mmHg 82%
    09:00 +9°C° 0 mm 2 mps 636 mmHg 73%
    10:00 +12°C° 0 mm 2 mps 636 mmHg 63%
    11:00 +13°C° 0 mm 2 mps 636 mmHg 60%
    12:00 +13°C° 0 mm 2 mps 636 mmHg 57%
    13:00 +13°C° 0 mm 3 mps 636 mmHg 55%
    14:00 +13°C° 0 mm 3 mps 636 mmHg 58%
    15:00 +13°C° 0 mm 3 mps 636 mmHg 61%
    16:00 +12°C° 0 mm 3 mps 636 mmHg 63%
    17:00 +10°C° 0 mm 2 mps 635 mmHg 73%
    18:00 +8°C° 0 mm 2 mps 635 mmHg 82%
    19:00 +6°C° 0 mm 2 mps 634 mmHg 91%
    20:00 +6°C° 0 mm 2 mps 634 mmHg 91%
    21:00 +6°C° 0 mm 2 mps 635 mmHg 90%
    22:00 +6°C° 0 mm 2 mps 635 mmHg 89%
    23:00 +6°C° 0 mm 2 mps 635 mmHg 89%
    Show more